Time,TemperatureF,DewpointF,PressureIn,WindDirection,WindDirectionDegrees,WindSpeedMPH,WindSpeedGustMPH,Humidity,HourlyPrecipIn,Conditions,Clouds,dailyrainin,SolarRadiationWatts/m^2,SoftwareType,DateUTC
2013-11-21 00:02:00,55.4,54.0,29.83,ESE,108,1.0,3.0,95,0.00,,,0.00,0.0,WUHU216DAVISVP2,2013-11-21 08:02:00,
2013-11-21 00:07:00,55.4,54.0,29.83,ESE,108,2.0,3.0,95,0.00,,,0.00,0.0,WUHU216DAVISVP2,2013-11-21 08:07:00,
2013-11-21 00:12:00,55.3,53.9,29.83,ESE,108,2.0,3.0,95,0.00,,,0.00,0.0,WUHU216DAVISVP2,2013-11-21 08:12:00,
2013-11-21 00:17:00,55.3,53.9,29.83,ESE,108,2.0,3.0,95,0.00,,,0.00,0.0,WUHU216DAVISVP2,2013-11-21 08:17:00,
2013-11-21 00:22:00,55.2,53.8,29.83,ESE,108,2.0,3.0,95,0.00,,,0.00,0.0,WUHU216DAVISVP2,2013-11-21 08:22:00,
2013-11-21 00:27:00,55.1,53.7,29.83,ESE,108,0.0,3.0,95,0.00,,,0.00,0.0,WUHU216DAVISVP2,2013-11-21 08:27:00,
2013-11-21 00:32:00,55.1,53.7,29.83,ESE,108,0.0,3.0,95,0.00,,,0.00,0.0,WUHU216DAVISVP2,2013-11-21 08:32:00,
2013-11-21 00:37:00,55.0,53.6,29.83,ESE,108,1.0,3.0,95,0.00,,,0.00,0.0,WUHU216DAVISVP2,2013-11-21 08:37:00,
2013-11-21 00:42:00,55.0,53.6,29.83,ESE,108,0.0,3.0,95,0.00,,,0.00,0.0,WUHU216DAVISVP2,2013-11-21 08:42:00,
2013-11-21 00:47:00,55.0,53.6,29.83,ESE,108,2.0,3.0,95,0.00,,,0.00,0.0,WUHU216DAVISVP2,2013-11-21 08:47:00,
2013-11-21 00:52:00,55.1,53.7,29.83,ESE,119,3.0,5.0,95,0.00,,,0.00,0.0,WUHU216DAVISVP2,2013-11-21 08:52:00,
2013-11-21 00:57:00,55.3,54.1,29.83,WSW,242,3.0,6.0,96,0.00,,,0.00,0.0,WUHU216DAVISVP2,2013-11-21 08:57:00,
2013-11-21 01:02:00,55.3,54.1,29.83,WSW,242,3.0,6.0,96,0.00,,,0.00,0.0,WUHU216DAVISVP2,2013-11-21 09:02:00,
2013-11-21 01:07:00,55.3,54.1,29.83,WSW,242,2.0,6.0,96,0.00,,,0.00,0.0,WUHU216DAVISVP2,2013-11-21 09:07:00,
2013-11-21 01:12:00,55.3,54.1,29.83,West,263,4.0,6.0,96,0.00,,,0.00,0.0,WUHU216DAVISVP2,2013-11-21 09:12:00,
2013-11-21 01:17:00,55.5,54.3,29.83,West,261,1.0,6.0,96,0.00,,,0.00,0.0,WUHU216DAVISVP2,2013-11-21 09:17:00,
2013-11-21 01:22:00,55.5,54.3,29.83,West,261,0.0,6.0,96,0.00,,,0.00,0.0,WUHU216DAVISVP2,2013-11-21 09:22:00,
2013-11-21 01:27:00,55.5,54.3,29.83,West,261,0.0,6.0,96,0.00,,,0.00,0.0,WUHU216DAVISVP2,2013-11-21 09:27:00,
2013-11-21 01:32:00,55.5,54.3,29.83,West,261,1.0,5.0,96,0.00,,,0.00,0.0,WUHU216DAVISVP2,2013-11-21 09:32:00,
2013-11-21 01:37:00,55.5,54.3,29.83,West,261,1.0,5.0,96,0.00,,,0.00,0.0,WUHU216DAVISVP2,2013-11-21 09:37:00,
2013-11-21 01:42:00,55.5,54.3,29.83,West,268,1.0,5.0,96,0.00,,,0.00,0.0,WUHU216DAVISVP2,2013-11-21 09:42:00,
2013-11-21 01:47:00,55.5,54.3,29.83,West,268,2.0,5.0,96,0.00,,,0.00,0.0,WUHU216DAVISVP2,2013-11-21 09:47:00,
2013-11-21 01:52:00,55.5,54.3,29.83,West,268,1.0,5.0,96,0.00,,,0.00,0.0,WUHU216DAVISVP2,2013-11-21 09:52:00,
2013-11-21 01:57:00,55.4,54.2,29.83,West,268,1.0,5.0,96,0.00,,,0.00,0.0,WUHU216DAVISVP2,2013-11-21 09:57:00,
2013-11-21 02:02:00,55.3,54.1,29.83,West,268,2.0,4.0,96,0.00,,,0.00,0.0,WUHU216DAVISVP2,2013-11-21 10:02:00,
2013-11-21 02:07:00,55.3,54.1,29.83,West,268,1.0,3.0,96,0.00,,,0.00,0.0,WUHU216DAVISVP2,2013-11-21 10:07:00,
2013-11-21 02:12:00,55.2,54.0,29.83,West,268,2.0,4.0,96,0.00,,,0.00,0.0,WUHU216DAVISVP2,2013-11-21 10:12:00,
2013-11-21 02:17:00,55.3,54.1,29.83,WNW,294,3.0,6.0,96,0.00,,,0.00,0.0,WUHU216DAVISVP2,2013-11-21 10:17:00,
2013-11-21 02:22:00,55.2,54.0,29.83,WNW,290,4.0,6.0,96,0.00,,,0.00,0.0,WUHU216DAVISVP2,2013-11-21 10:22:00,
2013-11-21 02:27:00,55.2,54.0,29.83,WNW,290,3.0,6.0,96,0.00,,,0.00,0.0,WUHU216DAVISVP2,2013-11-21 10:27:00,
2013-11-21 02:32:00,55.3,54.1,29.83,WNW,290,1.0,6.0,96,0.00,,,0.00,0.0,WUHU216DAVISVP2,2013-11-21 10:32:00,
2013-11-21 02:37:00,55.3,54.1,29.83,WNW,290,1.0,5.0,96,0.00,,,0.00,0.0,WUHU216DAVISVP2,2013-11-21 10:37:00,
2013-11-21 02:42:00,55.3,54.1,29.83,WNW,290,0.0,5.0,96,0.00,,,0.00,0.0,WUHU216DAVISVP2,2013-11-21 10:42:00,
2013-11-21 02:47:00,55.3,54.1,29.83,WNW,290,0.0,3.0,96,0.00,,,0.00,0.0,WUHU216DAVISVP2,2013-11-21 10:47:00,
2013-11-21 02:52:00,55.3,54.1,29.83,WNW,290,2.0,4.0,96,0.00,,,0.00,0.0,WUHU216DAVISVP2,2013-11-21 10:52:00,
2013-11-21 02:57:00,55.3,54.1,29.83,WNW,290,1.0,4.0,96,0.00,,,0.00,0.0,WUHU216DAVISVP2,2013-11-21 10:57:00,
2013-11-21 03:02:00,55.3,54.1,29.83,WNW,290,1.0,4.0,96,0.00,,,0.00,0.0,WUHU216DAVISVP2,2013-11-21 11:02:00,
2013-11-21 03:07:00,55.3,54.1,29.83,WNW,290,3.0,4.0,96,0.00,,,0.00,0.0,WUHU216DAVISVP2,2013-11-21 11:07:00,
2013-11-21 03:12:00,55.3,54.1,29.83,WNW,290,0.0,3.0,96,0.00,,,0.00,0.0,WUHU216DAVISVP2,2013-11-21 11:12:00,
2013-11-21 03:17:00,55.4,54.2,29.83,WNW,290,0.0,3.0,96,0.00,,,0.00,0.0,WUHU216DAVISVP2,2013-11-21 11:17:00,
2013-11-21 03:22:00,55.3,54.1,29.83,WNW,290,0.0,3.0,96,0.00,,,0.00,0.0,WUHU216DAVISVP2,2013-11-21 11:22:00,
2013-11-21 03:27:00,55.4,54.2,29.83,WNW,290,0.0,3.0,96,0.00,,,0.00,0.0,WUHU216DAVISVP2,2013-11-21 11:27:00,
2013-11-21 03:32:00,55.4,54.2,29.83,WNW,290,0.0,2.0,96,0.00,,,0.00,0.0,WUHU216DAVISVP2,2013-11-21 11:32:00,
2013-11-21 03:37:00,55.4,54.2,29.83,WNW,290,0.0,0.0,96,0.00,,,0.00,0.0,WUHU216DAVISVP2,2013-11-21 11:37:00,
2013-11-21 03:42:00,55.4,54.2,29.83,WNW,290,0.0,0.0,96,0.00,,,0.00,0.0,WUHU216DAVISVP2,2013-11-21 11:42:00,
2013-11-21 03:47:00,55.4,54.2,29.83,WNW,290,0.0,0.0,96,0.00,,,0.00,0.0,WUHU216DAVISVP2,2013-11-21 11:47:00,
2013-11-21 03:52:00,55.4,55.4,29.83,WNW,290,0.0,3.0,100,0.00,,,0.00,0.0,WUHU216DAVISVP2,2013-11-21 11:52:00,
2013-11-21 03:57:00,55.5,54.3,29.83,WNW,290,0.0,3.0,96,0.01,,,0.01,0.0,WUHU216DAVISVP2,2013-11-21 11:57:00,
2013-11-21 04:02:00,55.5,54.3,29.83,WNW,290,0.0,3.0,96,0.01,,,0.01,0.0,WUHU216DAVISVP2,2013-11-21 12:02:00,
2013-11-21 04:07:00,55.5,54.3,29.83,WNW,290,0.0,3.0,96,0.01,,,0.01,0.0,WUHU216DAVISVP2,2013-11-21 12:07:00,
2013-11-21 04:12:00,55.5,54.3,29.83,WNW,290,0.0,3.0,96,0.01,,,0.01,0.0,WUHU216DAVISVP2,2013-11-21 12:12:00,
2013-11-21 04:17:00,55.5,54.3,29.83,WNW,290,3.0,3.0,96,0.01,,,0.01,0.0,WUHU216DAVISVP2,2013-11-21 12:17:00,
2013-11-21 04:22:00,55.5,54.3,29.83,WNW,290,0.0,3.0,96,0.01,,,0.01,0.0,WUHU216DAVISVP2,2013-11-21 12:22:00,
2013-11-21 04:27:00,55.6,54.4,29.83,WNW,290,3.0,4.0,96,0.01,,,0.01,0.0,WUHU216DAVISVP2,2013-11-21 12:27:00,
2013-11-21 04:32:00,55.5,54.3,29.83,North,355,1.0,5.0,96,0.01,,,0.01,0.0,WUHU216DAVISVP2,2013-11-21 12:32:00,
2013-11-21 04:37:00,55.6,54.4,29.83,North,355,1.0,6.0,96,0.01,,,0.01,0.0,WUHU216DAVISVP2,2013-11-21 12:37:00,
2013-11-21 04:42:00,55.5,54.3,29.83,North,355,3.0,6.0,96,0.01,,,0.01,0.0,WUHU216DAVISVP2,2013-11-21 12:42:00,
2013-11-21 04:47:00,55.4,54.2,29.83,North,355,0.0,6.0,96,0.01,,,0.01,0.0,WUHU216DAVISVP2,2013-11-21 12:47:00,
2013-11-21 04:52:00,55.4,54.2,29.83,North,355,3.0,6.0,96,0.01,,,0.01,0.0,WUHU216DAVISVP2,2013-11-21 12:52:00,
2013-11-21 04:57:00,55.4,54.2,29.83,North,355,0.0,6.0,96,0.00,,,0.01,0.0,WUHU216DAVISVP2,2013-11-21 12:57:00,
2013-11-21 05:02:00,55.4,54.2,29.83,North,355,0.0,4.0,96,0.00,,,0.01,0.0,WUHU216DAVISVP2,2013-11-21 13:02:00,
2013-11-21 05:07:00,55.4,54.2,29.83,North,355,4.0,5.0,96,0.00,,,0.01,0.0,WUHU216DAVISVP2,2013-11-21 13:07:00,
2013-11-21 05:12:00,55.5,54.3,29.83,North,355,0.0,5.0,96,0.00,,,0.01,0.0,WUHU216DAVISVP2,2013-11-21 13:12:00,
2013-11-21 05:17:00,55.5,54.6,29.83,North,355,2.0,5.0,97,0.00,,,0.01,0.0,WUHU216DAVISVP2,2013-11-21 13:17:00,
2013-11-21 05:22:00,55.5,54.3,29.83,North,355,2.0,5.0,96,0.00,,,0.01,0.0,WUHU216DAVISVP2,2013-11-21 13:22:00,
2013-11-21 05:27:00,55.5,54.3,29.84,North,355,0.0,4.0,96,0.00,,,0.01,0.0,WUHU216DAVISVP2,2013-11-21 13:27:00,
2013-11-21 05:32:00,55.5,54.3,29.83,North,355,0.0,4.0,96,0.00,,,0.01,0.0,WUHU216DAVISVP2,2013-11-21 13:32:00,
2013-11-21 05:37:00,55.5,54.6,29.84,North,355,0.0,3.0,97,0.00,,,0.01,0.0,WUHU216DAVISVP2,2013-11-21 13:37:00,
2013-11-21 05:42:00,55.5,54.3,29.84,North,355,0.0,3.0,96,0.00,,,0.01,0.0,WUHU216DAVISVP2,2013-11-21 13:42:00,
2013-11-21 05:47:00,55.4,54.2,29.84,North,355,2.0,3.0,96,0.00,,,0.01,0.0,WUHU216DAVISVP2,2013-11-21 13:47:00,
2013-11-21 05:52:00,55.5,54.3,29.84,North,355,2.0,4.0,96,0.00,,,0.01,0.0,WUHU216DAVISVP2,2013-11-21 13:52:00,
2013-11-21 05:57:00,55.4,54.2,29.84,North,355,0.0,5.0,96,0.00,,,0.01,0.0,WUHU216DAVISVP2,2013-11-21 13:57:00,
2013-11-21 06:02:00,55.4,54.2,29.84,North,355,4.0,5.0,96,0.00,,,0.01,0.0,WUHU216DAVISVP2,2013-11-21 14:02:00,
2013-11-21 06:07:00,55.3,54.1,29.84,North,355,2.0,5.0,96,0.00,,,0.01,0.0,WUHU216DAVISVP2,2013-11-21 14:07:00,
2013-11-21 06:12:00,55.2,54.0,29.84,North,355,6.0,6.0,96,0.00,,,0.01,0.0,WUHU216DAVISVP2,2013-11-21 14:12:00,
2013-11-21 06:17:00,55.1,54.0,29.85,North,355,3.0,6.0,96,0.00,,,0.01,0.0,WUHU216DAVISVP2,2013-11-21 14:17:00,
2013-11-21 06:22:00,55.0,53.8,29.84,NNW,339,7.0,8.0,96,0.00,,,0.01,0.0,WUHU216DAVISVP2,2013-11-21 14:22:00,
2013-11-21 06:27:00,54.9,53.7,29.85,NW,318,3.0,8.0,96,0.00,,,0.01,0.0,WUHU216DAVISVP2,2013-11-21 14:27:00,
2013-11-21 06:32:00,54.8,53.6,29.84,NW,325,4.0,8.0,96,0.01,,,0.02,0.0,WUHU216DAVISVP2,2013-11-21 14:32:00,
2013-11-21 06:37:00,54.8,53.7,29.84,NW,321,5.0,8.0,96,0.01,,,0.02,0.0,WUHU216DAVISVP2,2013-11-21 14:37:00,
2013-11-21 06:42:00,54.8,53.7,29.85,NW,321,4.0,7.0,96,0.01,,,0.02,0.0,WUHU216DAVISVP2,2013-11-21 14:42:00,
2013-11-21 06:47:00,54.8,53.7,29.85,NW,321,3.0,7.0,96,0.01,,,0.02,0.0,WUHU216DAVISVP2,2013-11-21 14:47:00,
2013-11-21 06:52:00,54.8,53.7,29.85,NW,321,2.0,6.0,96,0.01,,,0.02,0.0,WUHU216DAVISVP2,2013-11-21 14:52:00,
2013-11-21 06:57:00,54.8,53.7,29.85,NW,321,3.0,5.0,96,0.01,,,0.02,0.0,WUHU216DAVISVP2,2013-11-21 14:57:00,
2013-11-21 07:02:00,54.8,53.7,29.85,NW,313,2.0,7.0,96,0.01,,,0.02,0.0,WUHU216DAVISVP2,2013-11-21 15:02:00,
2013-11-21 07:07:00,54.7,53.6,29.86,NW,309,4.0,7.0,96,0.01,,,0.02,0.0,WUHU216DAVISVP2,2013-11-21 15:07:00,
2013-11-21 07:12:00,54.7,53.6,29.85,NW,308,5.0,7.0,96,0.01,,,0.02,5.0,WUHU216DAVISVP2,2013-11-21 15:12:00,
2013-11-21 07:17:00,54.7,53.5,29.86,NW,313,4.0,7.0,96,0.01,,,0.02,7.0,WUHU216DAVISVP2,2013-11-21 15:17:00,
2013-11-21 07:22:00,54.6,53.4,29.86,NNW,327,4.0,7.0,96,0.01,,,0.02,11.0,WUHU216DAVISVP2,2013-11-21 15:22:00,
2013-11-21 07:27:00,54.7,53.5,29.86,NNW,328,3.0,7.0,96,0.01,,,0.02,16.0,WUHU216DAVISVP2,2013-11-21 15:27:00,
2013-11-21 07:32:00,54.6,53.4,29.86,NW,323,5.0,8.0,96,0.00,,,0.02,18.0,WUHU216DAVISVP2,2013-11-21 15:32:00,
2013-11-21 07:37:00,54.7,53.5,29.86,NW,325,3.0,8.0,96,0.00,,,0.02,23.0,WUHU216DAVISVP2,2013-11-21 15:37:00,
2013-11-21 07:42:00,54.7,53.5,29.86,NW,325,3.0,8.0,96,0.00,,,0.02,35.0,WUHU216DAVISVP2,2013-11-21 15:42:00,
2013-11-21 07:47:00,54.7,53.5,29.86,NW,325,2.0,8.0,96,0.00,,,0.02,54.0,WUHU216DAVISVP2,2013-11-21 15:47:00,
2013-11-21 07:52:00,54.7,53.6,29.86,NW,312,5.0,7.0,96,0.00,,,0.02,70.0,WUHU216DAVISVP2,2013-11-21 15:52:00,
2013-11-21 07:57:00,54.7,53.6,29.86,NW,315,3.0,7.0,96,0.00,,,0.02,79.0,WUHU216DAVISVP2,2013-11-21 15:57:00,
2013-11-21 08:02:00,54.8,53.7,29.86,NW,321,2.0,7.0,96,0.00,,,0.02,70.0,WUHU216DAVISVP2,2013-11-21 16:02:00,
2013-11-21 08:07:00,54.9,53.8,29.86,NW,324,3.0,7.0,96,0.00,,,0.02,67.0,WUHU216DAVISVP2,2013-11-21 16:07:00,
2013-11-21 08:12:00,54.9,53.8,29.86,NW,317,2.0,7.0,96,0.00,,,0.02,72.0,WUHU216DAVISVP2,2013-11-21 16:12:00,
2013-11-21 08:17:00,54.9,53.8,29.86,NW,311,3.0,8.0,96,0.00,,,0.02,69.0,WUHU216DAVISVP2,2013-11-21 16:17:00,
2013-11-21 08:22:00,54.9,53.8,29.86,NNW,332,6.0,11.0,96,0.00,,,0.02,77.0,WUHU216DAVISVP2,2013-11-21 16:22:00,
2013-11-21 08:27:00,54.8,53.4,29.87,NW,322,5.0,11.0,95,0.00,,,0.02,100.0,WUHU216DAVISVP2,2013-11-21 16:27:00,
2013-11-21 08:32:00,54.8,53.4,29.86,NW,318,4.0,11.0,95,0.00,,,0.02,244.0,WUHU216DAVISVP2,2013-11-21 16:32:00,
2013-11-21 08:37:00,55.0,53.6,29.86,NW,323,6.0,11.0,95,0.00,,,0.02,308.0,WUHU216DAVISVP2,2013-11-21 16:37:00,
2013-11-21 08:42:00,55.3,53.6,29.86,NW,323,10.0,13.0,94,0.00,,,0.02,271.0,WUHU216DAVISVP2,2013-11-21 16:42:00,
2013-11-21 08:47:00,55.5,53.8,29.87,NW,320,7.0,13.0,94,0.00,,,0.02,213.0,WUHU216DAVISVP2,2013-11-21 16:47:00,
2013-11-21 08:52:00,55.9,53.9,29.87,NW,306,3.0,13.0,93,0.00,,,0.02,225.0,WUHU216DAVISVP2,2013-11-21 16:52:00,
2013-11-21 08:57:00,56.3,54.3,29.87,NNW,345,7.0,12.0,93,0.00,,,0.02,390.0,WUHU216DAVISVP2,2013-11-21 16:57:00,
2013-11-21 09:02:00,56.5,53.9,29.87,NNW,346,3.0,11.0,91,0.00,,,0.02,179.0,WUHU216DAVISVP2,2013-11-21 17:02:00,
2013-11-21 09:07:00,56.4,53.8,29.87,NW,324,7.0,11.0,91,0.00,,,0.02,195.0,WUHU216DAVISVP2,2013-11-21 17:07:00,
2013-11-21 09:12:00,56.3,53.4,29.87,NNW,331,5.0,11.0,90,0.00,,,0.02,160.0,WUHU216DAVISVP2,2013-11-21 17:12:00,
2013-11-21 09:17:00,56.5,53.9,29.87,NW,319,5.0,10.0,91,0.00,,,0.02,113.0,WUHU216DAVISVP2,2013-11-21 17:17:00,
2013-11-21 09:22:00,56.5,53.6,29.87,NW,311,5.0,10.0,90,0.00,,,0.02,135.0,WUHU216DAVISVP2,2013-11-21 17:22:00,
2013-11-21 09:27:00,56.5,53.6,29.87,WNW,301,7.0,12.0,90,0.00,,,0.02,158.0,WUHU216DAVISVP2,2013-11-21 17:27:00,
2013-11-21 09:32:00,56.4,53.5,29.87,WNW,292,3.0,12.0,90,0.00,,,0.02,209.0,WUHU216DAVISVP2,2013-11-21 17:32:00,
2013-11-21 09:37:00,56.6,53.4,29.88,NNW,332,8.0,12.0,89,0.00,,,0.02,195.0,WUHU216DAVISVP2,2013-11-21 17:37:00,
2013-11-21 09:42:00,56.6,53.1,29.88,NW,323,3.0,12.0,88,0.00,,,0.02,195.0,WUHU216DAVISVP2,2013-11-21 17:42:00,
2013-11-21 09:47:00,56.7,53.2,29.87,WNW,301,7.0,11.0,88,0.00,,,0.02,155.0,WUHU216DAVISVP2,2013-11-21 17:47:00,
2013-11-21 09:52:00,56.7,53.2,29.88,WNW,296,9.0,11.0,88,0.00,,,0.02,149.0,WUHU216DAVISVP2,2013-11-21 17:52:00,
2013-11-21 09:57:00,56.8,53.3,29.88,WNW,293,6.0,11.0,88,0.00,,,0.02,125.0,WUHU216DAVISVP2,2013-11-21 17:57:00,
2013-11-21 10:02:00,56.7,53.2,29.87,NNW,329,5.0,9.0,88,0.00,,,0.02,137.0,WUHU216DAVISVP2,2013-11-21 18:02:00,
2013-11-21 10:07:00,56.7,53.2,29.87,WNW,303,4.0,9.0,88,0.00,,,0.02,178.0,WUHU216DAVISVP2,2013-11-21 18:07:00,
2013-11-21 10:12:00,56.8,53.3,29.87,WNW,292,6.0,9.0,88,0.00,,,0.02,186.0,WUHU216DAVISVP2,2013-11-21 18:12:00,
2013-11-21 10:17:00,56.9,53.1,29.87,NW,319,6.0,9.0,87,0.00,,,0.02,362.0,WUHU216DAVISVP2,2013-11-21 18:17:00,
2013-11-21 10:22:00,57.3,53.8,29.87,WNW,299,5.0,9.0,88,0.00,,,0.02,125.0,WUHU216DAVISVP2,2013-11-21 18:22:00,
2013-11-21 10:27:00,57.2,53.4,29.87,WNW,294,7.0,8.0,87,0.00,,,0.02,190.0,WUHU216DAVISVP2,2013-11-21 18:27:00,
2013-11-21 10:32:00,56.9,53.4,29.87,WSW,242,6.0,11.0,88,0.00,,,0.02,169.0,WUHU216DAVISVP2,2013-11-21 18:32:00,
2013-11-21 10:37:00,56.8,53.3,29.87,WNW,302,5.0,11.0,88,0.00,,,0.02,172.0,WUHU216DAVISVP2,2013-11-21 18:37:00,
2013-11-21 10:42:00,56.9,53.7,29.87,WNW,300,6.0,11.0,89,0.00,,,0.02,221.0,WUHU216DAVISVP2,2013-11-21 18:42:00,
2013-11-21 10:47:00,57.0,53.5,29.87,WNW,286,7.0,11.0,88,0.00,,,0.02,258.0,WUHU216DAVISVP2,2013-11-21 18:47:00,
2013-11-21 10:52:00,57.1,53.6,29.86,WNW,300,7.0,11.0,88,0.00,,,0.02,287.0,WUHU216DAVISVP2,2013-11-21 18:52:00,
2013-11-21 10:57:00,57.3,53.8,29.86,NW,308,6.0,11.0,88,0.00,,,0.02,306.0,WUHU216DAVISVP2,2013-11-21 18:57:00,
2013-11-21 11:02:00,57.4,53.5,29.86,WNW,289,6.0,11.0,87,0.00,,,0.02,338.0,WUHU216DAVISVP2,2013-11-21 19:02:00,
2013-11-21 11:07:00,57.4,53.5,29.86,WNW,293,4.0,11.0,87,0.00,,,0.02,318.0,WUHU216DAVISVP2,2013-11-21 19:07:00,
2013-11-21 11:12:00,57.4,53.5,29.86,WNW,300,5.0,11.0,87,0.00,,,0.02,346.0,WUHU216DAVISVP2,2013-11-21 19:12:00,
2013-11-21 11:17:00,57.5,53.6,29.86,WNW,298,7.0,14.0,87,0.00,,,0.02,255.0,WUHU216DAVISVP2,2013-11-21 19:17:00,
2013-11-21 11:22:00,57.1,53.6,29.86,WNW,297,12.0,14.0,88,0.00,,,0.02,332.0,WUHU216DAVISVP2,2013-11-21 19:22:00,
2013-11-21 11:27:00,56.8,53.3,29.86,WNW,282,9.0,14.0,88,0.00,,,0.02,341.0,WUHU216DAVISVP2,2013-11-21 19:27:00,
2013-11-21 11:32:00,56.5,53.0,29.85,NW,308,5.0,14.0,88,0.00,,,0.02,209.0,WUHU216DAVISVP2,2013-11-21 19:32:00,
2013-11-21 11:37:00,56.2,52.7,29.85,NW,311,6.0,14.0,88,0.00,,,0.02,211.0,WUHU216DAVISVP2,2013-11-21 19:37:00,
2013-11-21 11:42:00,56.0,52.8,29.85,NW,319,7.0,14.0,89,0.00,,,0.02,225.0,WUHU216DAVISVP2,2013-11-21 19:42:00,
2013-11-21 11:47:00,56.2,53.0,29.85,West,261,11.0,14.0,89,0.00,,,0.02,274.0,WUHU216DAVISVP2,2013-11-21 19:47:00,
2013-11-21 11:52:00,56.3,53.1,29.85,WNW,288,8.0,14.0,89,0.00,,,0.02,234.0,WUHU216DAVISVP2,2013-11-21 19:52:00,
2013-11-21 11:57:00,56.0,52.5,29.85,West,280,7.0,14.0,88,0.00,,,0.02,236.0,WUHU216DAVISVP2,2013-11-21 19:57:00,
2013-11-21 12:02:00,56.0,52.8,29.85,WNW,303,5.0,13.0,89,0.00,,,0.02,260.0,WUHU216DAVISVP2,2013-11-21 20:02:00,
2013-11-21 12:07:00,56.0,52.8,29.85,West,281,6.0,13.0,89,0.00,,,0.02,188.0,WUHU216DAVISVP2,2013-11-21 20:07:00,
2013-11-21 12:12:00,56.0,52.8,29.85,West,273,3.0,13.0,89,0.00,,,0.02,171.0,WUHU216DAVISVP2,2013-11-21 20:12:00,
2013-11-21 12:17:00,56.0,52.5,29.84,WNW,301,7.0,13.0,88,0.00,,,0.02,223.0,WUHU216DAVISVP2,2013-11-21 20:17:00,
2013-11-21 12:22:00,56.1,52.6,29.84,NW,322,6.0,12.0,88,0.00,,,0.02,218.0,WUHU216DAVISVP2,2013-11-21 20:22:00,
2013-11-21 12:27:00,56.3,52.8,29.85,WNW,303,7.0,12.0,88,0.00,,,0.02,230.0,WUHU216DAVISVP2,2013-11-21 20:27:00,
2013-11-21 12:32:00,56.3,52.8,29.85,WNW,286,6.0,13.0,88,0.00,,,0.02,251.0,WUHU216DAVISVP2,2013-11-21 20:32:00,
2013-11-21 12:37:00,56.2,52.4,29.84,WNW,300,7.0,13.0,87,0.00,,,0.02,227.0,WUHU216DAVISVP2,2013-11-21 20:37:00,
2013-11-21 12:42:00,56.4,52.9,29.85,WNW,292,5.0,13.0,88,0.00,,,0.02,178.0,WUHU216DAVISVP2,2013-11-21 20:42:00,
2013-11-21 12:47:00,56.4,52.6,29.85,NW,305,7.0,13.0,87,0.00,,,0.02,185.0,WUHU216DAVISVP2,2013-11-21 20:47:00,
2013-11-21 12:52:00,56.6,52.5,29.85,NNW,339,8.0,13.0,86,0.00,,,0.02,234.0,WUHU216DAVISVP2,2013-11-21 20:52:00,
2013-11-21 12:57:00,56.7,52.9,29.85,WNW,297,8.0,11.0,87,0.00,,,0.02,241.0,WUHU216DAVISVP2,2013-11-21 20:57:00,
2013-11-21 13:02:00,56.8,53.0,29.85,NW,312,5.0,11.0,87,0.00,,,0.02,163.0,WUHU216DAVISVP2,2013-11-21 21:02:00,
2013-11-21 13:07:00,56.4,52.3,29.85,NW,320,5.0,11.0,86,0.00,,,0.02,135.0,WUHU216DAVISVP2,2013-11-21 21:07:00,
2013-11-21 13:12:00,56.3,52.2,29.84,NW,315,6.0,10.0,86,0.00,,,0.02,91.0,WUHU216DAVISVP2,2013-11-21 21:12:00,
2013-11-21 13:17:00,55.9,52.1,29.85,WNW,299,4.0,12.0,87,0.00,,,0.02,67.0,WUHU216DAVISVP2,2013-11-21 21:17:00,
2013-11-21 13:22:00,55.4,51.6,29.85,NW,308,5.0,12.0,87,0.00,,,0.02,62.0,WUHU216DAVISVP2,2013-11-21 21:22:00,
2013-11-21 13:27:00,55.1,51.6,29.85,NW,305,10.0,12.0,88,0.00,,,0.02,128.0,WUHU216DAVISVP2,2013-11-21 21:27:00,
2013-11-21 13:32:00,54.9,51.4,29.84,WNW,293,6.0,12.0,88,0.00,,,0.02,144.0,WUHU216DAVISVP2,2013-11-21 21:32:00,
2013-11-21 13:37:00,55.0,51.5,29.84,West,276,7.0,11.0,88,0.00,,,0.02,151.0,WUHU216DAVISVP2,2013-11-21 21:37:00,
2013-11-21 13:42:00,55.0,51.5,29.84,NW,322,6.0,11.0,88,0.00,,,0.02,155.0,WUHU216DAVISVP2,2013-11-21 21:42:00,
2013-11-21 13:47:00,55.0,51.5,29.84,WNW,290,8.0,11.0,88,0.00,,,0.02,163.0,WUHU216DAVISVP2,2013-11-21 21:47:00,
2013-11-21 13:52:00,55.1,51.6,29.84,NW,309,4.0,11.0,88,0.00,,,0.02,118.0,WUHU216DAVISVP2,2013-11-21 21:52:00,
2013-11-21 13:57:00,55.1,51.3,29.84,WNW,288,8.0,9.0,87,0.00,,,0.02,105.0,WUHU216DAVISVP2,2013-11-21 21:57:00,
2013-11-21 14:02:00,54.9,51.4,29.84,WNW,292,7.0,10.0,88,0.00,,,0.02,90.0,WUHU216DAVISVP2,2013-11-21 22:02:00,
2013-11-21 14:07:00,54.8,51.3,29.84,NW,310,5.0,10.0,88,0.00,,,0.02,79.0,WUHU216DAVISVP2,2013-11-21 22:07:00,
2013-11-21 14:12:00,54.9,51.4,29.84,NNW,336,6.0,10.0,88,0.00,,,0.02,65.0,WUHU216DAVISVP2,2013-11-21 22:12:00,
2013-11-21 14:17:00,54.9,51.4,29.84,WNW,294,4.0,10.0,88,0.00,,,0.02,72.0,WUHU216DAVISVP2,2013-11-21 22:17:00,
2013-11-21 14:22:00,54.7,51.2,29.84,NW,304,4.0,9.0,88,0.00,,,0.02,79.0,WUHU216DAVISVP2,2013-11-21 22:22:00,
2013-11-21 14:27:00,54.6,51.1,29.84,NW,321,6.0,9.0,88,0.00,,,0.02,84.0,WUHU216DAVISVP2,2013-11-21 22:27:00,
2013-11-21 14:32:00,54.6,51.1,29.84,NW,307,6.0,9.0,88,0.00,,,0.02,76.0,WUHU216DAVISVP2,2013-11-21 22:32:00,
2013-11-21 14:37:00,54.4,50.9,29.84,NW,304,4.0,9.0,88,0.00,,,0.02,77.0,WUHU216DAVISVP2,2013-11-21 22:37:00,
2013-11-21 14:42:00,54.5,51.0,29.84,NW,304,6.0,9.0,88,0.00,,,0.02,79.0,WUHU216DAVISVP2,2013-11-21 22:42:00,
2013-11-21 14:47:00,54.4,50.9,29.84,NW,305,4.0,8.0,88,0.00,,,0.02,77.0,WUHU216DAVISVP2,2013-11-21 22:47:00,
2013-11-21 14:52:00,54.5,51.0,29.84,WNW,290,5.0,8.0,88,0.00,,,0.02,70.0,WUHU216DAVISVP2,2013-11-21 22:52:00,
2013-11-21 14:57:00,54.5,51.0,29.84,WNW,296,7.0,8.0,88,0.00,,,0.02,81.0,WUHU216DAVISVP2,2013-11-21 22:57:00,
2013-11-21 15:02:00,54.5,51.0,29.84,NW,305,6.0,8.0,88,0.00,,,0.02,91.0,WUHU216DAVISVP2,2013-11-21 23:02:00,
2013-11-21 15:07:00,54.4,50.9,29.84,West,280,4.0,8.0,88,0.00,,,0.02,86.0,WUHU216DAVISVP2,2013-11-21 23:07:00,
2013-11-21 15:12:00,54.4,50.9,29.84,WNW,300,6.0,8.0,88,0.00,,,0.02,88.0,WUHU216DAVISVP2,2013-11-21 23:12:00,
2013-11-21 15:17:00,54.4,50.9,29.85,NW,313,6.0,8.0,88,0.00,,,0.02,81.0,WUHU216DAVISVP2,2013-11-21 23:17:00,
2013-11-21 15:22:00,54.4,50.9,29.84,NW,306,4.0,8.0,88,0.00,,,0.02,76.0,WUHU216DAVISVP2,2013-11-21 23:22:00,
2013-11-21 15:27:00,54.5,51.0,29.84,WNW,295,5.0,8.0,88,0.00,,,0.02,67.0,WUHU216DAVISVP2,2013-11-21 23:27:00,
2013-11-21 15:32:00,54.5,51.0,29.85,NW,319,3.0,8.0,88,0.00,,,0.02,63.0,WUHU216DAVISVP2,2013-11-21 23:32:00,
2013-11-21 15:37:00,54.5,50.7,29.85,WNW,303,4.0,8.0,87,0.00,,,0.02,58.0,WUHU216DAVISVP2,2013-11-21 23:37:00,
2013-11-21 15:42:00,54.5,51.0,29.85,NW,320,6.0,8.0,88,0.00,,,0.02,63.0,WUHU216DAVISVP2,2013-11-21 23:42:00,
2013-11-21 15:47:00,54.5,51.0,29.85,WNW,300,4.0,8.0,88,0.00,,,0.02,54.0,WUHU216DAVISVP2,2013-11-21 23:47:00,
2013-11-21 15:52:00,54.5,51.0,29.85,West,278,5.0,8.0,88,0.00,,,0.02,49.0,WUHU216DAVISVP2,2013-11-21 23:52:00,
2013-11-21 15:57:00,54.6,51.1,29.85,WNW,302,4.0,8.0,88,0.00,,,0.02,44.0,WUHU216DAVISVP2,2013-11-21 23:57:00,
2013-11-21 16:02:00,54.6,50.8,29.85,NW,324,7.0,9.0,87,0.00,,,0.02,47.0,WUHU216DAVISVP2,2013-11-22 00:02:00,
2013-11-21 16:07:00,54.5,50.7,29.85,NW,309,6.0,9.0,87,0.00,,,0.02,40.0,WUHU216DAVISVP2,2013-11-22 00:07:00,
2013-11-21 16:12:00,54.4,50.9,29.85,NW,308,4.0,9.0,88,0.00,,,0.02,37.0,WUHU216DAVISVP2,2013-11-22 00:12:00,
2013-11-21 16:17:00,54.4,50.9,29.85,WNW,298,4.0,9.0,88,0.00,,,0.02,28.0,WUHU216DAVISVP2,2013-11-22 00:17:00,
2013-11-21 16:22:00,54.3,50.8,29.85,NW,317,4.0,9.0,88,0.00,,,0.02,28.0,WUHU216DAVISVP2,2013-11-22 00:22:00,
2013-11-21 16:27:00,54.2,50.7,29.85,NW,322,5.0,8.0,88,0.00,,,0.02,25.0,WUHU216DAVISVP2,2013-11-22 00:27:00,
2013-11-21 16:32:00,54.1,50.6,29.85,NW,317,5.0,9.0,88,0.00,,,0.02,12.0,WUHU216DAVISVP2,2013-11-22 00:32:00,
2013-11-21 16:37:00,54.1,50.6,29.85,NW,315,5.0,9.0,88,0.00,,,0.02,5.0,WUHU216DAVISVP2,2013-11-22 00:37:00,
2013-11-21 16:42:00,54.0,50.5,29.85,NW,317,3.0,9.0,88,0.00,,,0.02,0.0,WUHU216DAVISVP2,2013-11-22 00:42:00,
2013-11-21 16:47:00,54.0,50.8,29.85,NW,311,4.0,9.0,89,0.00,,,0.02,0.0,WUHU216DAVISVP2,2013-11-22 00:47:00,
2013-11-21 16:52:00,54.0,50.5,29.85,WNW,301,4.0,7.0,88,0.00,,,0.02,0.0,WUHU216DAVISVP2,2013-11-22 00:52:00,
2013-11-21 16:57:00,53.9,50.7,29.85,NW,315,5.0,9.0,89,0.00,,,0.02,0.0,WUHU216DAVISVP2,2013-11-22 00:57:00,
2013-11-21 17:02:00,53.8,50.6,29.85,NW,306,5.0,9.0,89,0.00,,,0.02,0.0,WUHU216DAVISVP2,2013-11-22 01:02:00,
2013-11-21 17:07:00,53.7,50.5,29.85,NW,310,4.0,9.0,89,0.00,,,0.02,0.0,WUHU216DAVISVP2,2013-11-22 01:07:00,
2013-11-21 17:12:00,53.6,50.4,29.85,NW,313,2.0,9.0,89,0.00,,,0.02,0.0,WUHU216DAVISVP2,2013-11-22 01:12:00,
2013-11-21 17:17:00,53.5,50.3,29.85,NW,307,6.0,9.0,89,0.00,,,0.02,0.0,WUHU216DAVISVP2,2013-11-22 01:17:00,
2013-11-21 17:22:00,53.5,50.3,29.85,NW,305,4.0,9.0,89,0.00,,,0.02,0.0,WUHU216DAVISVP2,2013-11-22 01:22:00,
2013-11-21 17:27:00,53.4,50.2,29.85,WNW,300,3.0,7.0,89,0.00,,,0.02,0.0,WUHU216DAVISVP2,2013-11-22 01:27:00,
2013-11-21 17:32:00,53.4,50.2,29.86,West,281,5.0,7.0,89,0.00,,,0.02,0.0,WUHU216DAVISVP2,2013-11-22 01:32:00,
2013-11-21 17:37:00,53.4,50.2,29.86,WNW,282,5.0,7.0,89,0.00,,,0.02,0.0,WUHU216DAVISVP2,2013-11-22 01:37:00,
2013-11-21 17:42:00,53.3,50.1,29.86,WNW,301,4.0,7.0,89,0.00,,,0.02,0.0,WUHU216DAVISVP2,2013-11-22 01:42:00,
2013-11-21 17:47:00,53.3,50.1,29.86,NW,304,3.0,6.0,89,0.00,,,0.02,0.0,WUHU216DAVISVP2,2013-11-22 01:47:00,
2013-11-21 17:52:00,53.3,50.1,29.86,WNW,297,6.0,6.0,89,0.00,,,0.02,0.0,WUHU216DAVISVP2,2013-11-22 01:52:00,
2013-11-21 17:56:00,53.3,50.1,29.87,NNW,342,7.0,7.0,89,0.00,,,0.02,0.0,WUHU216DAVISVP2,2013-11-22 01:56:00,
2013-11-21 18:01:00,53.3,50.1,29.86,WNW,290,4.0,7.0,89,0.00,,,0.02,0.0,WUHU216DAVISVP2,2013-11-22 02:01:00,
2013-11-21 18:06:00,53.3,50.1,29.86,WNW,293,5.0,8.0,89,0.00,,,0.02,0.0,WUHU216DAVISVP2,2013-11-22 02:06:00,
2013-11-21 18:08:00,53.3,50.1,29.86,NW,304,4.0,8.0,89,0.00,,,0.02,0.0,WUHU216DAVISVP2,2013-11-22 02:08:00,
2013-11-21 18:10:00,53.3,50.1,29.86,WNW,292,4.0,8.0,89,0.00,,,0.02,0.0,WUHU216DAVISVP2,2013-11-22 02:10:00,
2013-11-21 18:15:00,53.2,50.0,29.86,West,279,2.0,8.0,89,0.00,,,0.02,0.0,WUHU216DAVISVP2,2013-11-22 02:15:00,
2013-11-21 18:20:00,53.2,50.0,29.86,WNW,286,4.0,8.0,89,0.00,,,0.02,0.0,WUHU216DAVISVP2,2013-11-22 02:20:00,
2013-11-21 18:25:00,53.1,49.9,29.87,NW,304,3.0,7.0,89,0.00,,,0.02,0.0,WUHU216DAVISVP2,2013-11-22 02:25:00,
2013-11-21 18:30:00,53.1,49.9,29.87,WNW,292,3.0,7.0,89,0.00,,,0.02,0.0,WUHU216DAVISVP2,2013-11-22 02:30:00,
2013-11-21 18:35:00,53.1,49.9,29.87,West,270,2.0,7.0,89,0.00,,,0.02,0.0,WUHU216DAVISVP2,2013-11-22 02:35:00,
2013-11-21 18:40:00,53.2,50.0,29.87,West,277,2.0,7.0,89,0.00,,,0.02,0.0,WUHU216DAVISVP2,2013-11-22 02:40:00,
2013-11-21 18:45:00,53.1,49.9,29.87,WNW,285,3.0,7.0,89,0.00,,,0.02,0.0,WUHU216DAVISVP2,2013-11-22 02:45:00,
2013-11-21 18:50:00,53.0,49.8,29.88,NW,306,6.0,8.0,89,0.00,,,0.02,0.0,WUHU216DAVISVP2,2013-11-22 02:50:00,
2013-11-21 18:55:00,53.0,49.8,29.88,NW,304,3.0,8.0,89,0.00,,,0.02,0.0,WUHU216DAVISVP2,2013-11-22 02:55:00,
2013-11-21 19:00:00,53.0,49.8,29.88,WNW,293,3.0,8.0,89,0.00,,,0.02,0.0,WUHU216DAVISVP2,2013-11-22 03:00:00,
2013-11-21 19:05:00,52.9,49.7,29.88,NW,309,3.0,8.0,89,0.00,,,0.02,0.0,WUHU216DAVISVP2,2013-11-22 03:05:00,
2013-11-21 19:10:00,52.8,49.9,29.88,WNW,294,4.0,7.0,90,0.00,,,0.02,0.0,WUHU216DAVISVP2,2013-11-22 03:10:00,
2013-11-21 19:15:00,52.7,49.8,29.89,WNW,294,3.0,7.0,90,0.00,,,0.02,0.0,WUHU216DAVISVP2,2013-11-22 03:15:00,
2013-11-21 19:20:00,52.7,49.8,29.89,WNW,294,0.0,6.0,90,0.00,,,0.02,0.0,WUHU216DAVISVP2,2013-11-22 03:20:00,
2013-11-21 19:25:00,52.7,49.8,29.89,WNW,294,1.0,5.0,90,0.00,,,0.02,0.0,WUHU216DAVISVP2,2013-11-22 03:25:00,
2013-11-21 19:30:00,52.7,49.8,29.89,WNW,294,1.0,4.0,90,0.00,,,0.02,0.0,WUHU216DAVISVP2,2013-11-22 03:30:00,
2013-11-21 19:35:00,52.7,49.8,29.89,WNW,294,0.0,3.0,90,0.00,,,0.02,0.0,WUHU216DAVISVP2,2013-11-22 03:35:00,
2013-11-21 19:40:00,52.7,49.8,29.90,WNW,294,0.0,3.0,90,0.00,,,0.02,0.0,WUHU216DAVISVP2,2013-11-22 03:40:00,
2013-11-21 19:45:00,52.7,49.8,29.90,WNW,294,0.0,3.0,90,0.00,,,0.02,0.0,WUHU216DAVISVP2,2013-11-22 03:45:00,
2013-11-21 19:50:00,52.6,49.7,29.90,WNW,294,0.0,3.0,90,0.00,,,0.02,0.0,WUHU216DAVISVP2,2013-11-22 03:50:00,
2013-11-21 19:55:00,52.7,49.8,29.90,WNW,294,0.0,2.0,90,0.00,,,0.02,0.0,WUHU216DAVISVP2,2013-11-22 03:55:00,
2013-11-21 20:00:00,52.7,49.8,29.90,WNW,294,0.0,2.0,90,0.00,,,0.02,0.0,WUHU216DAVISVP2,2013-11-22 04:00:00,
2013-11-21 20:05:00,52.7,49.8,29.90,WNW,294,0.0,0.0,90,0.00,,,0.02,0.0,WUHU216DAVISVP2,2013-11-22 04:05:00,
2013-11-21 20:10:00,52.8,49.9,29.90,WNW,294,2.0,2.0,90,0.00,,,0.02,0.0,WUHU216DAVISVP2,2013-11-22 04:10:00,
2013-11-21 20:15:00,52.8,49.9,29.90,WNW,294,2.0,3.0,90,0.00,,,0.02,0.0,WUHU216DAVISVP2,2013-11-22 04:15:00,
2013-11-21 20:20:00,52.8,49.9,29.91,WNW,294,0.0,3.0,90,0.00,,,0.02,0.0,WUHU216DAVISVP2,2013-11-22 04:20:00,
2013-11-21 20:25:00,52.8,50.2,29.91,WNW,294,0.0,3.0,91,0.00,,,0.02,0.0,WUHU216DAVISVP2,2013-11-22 04:25:00,
2013-11-21 20:30:00,52.8,50.2,29.91,WNW,294,0.0,3.0,91,0.00,,,0.02,0.0,WUHU216DAVISVP2,2013-11-22 04:30:00,
2013-11-21 20:35:00,52.9,50.3,29.91,WNW,294,0.0,3.0,91,0.00,,,0.02,0.0,WUHU216DAVISVP2,2013-11-22 04:35:00,
2013-11-21 20:40:00,53.0,50.4,29.92,WNW,294,1.0,3.0,91,0.01,,,0.03,0.0,WUHU216DAVISVP2,2013-11-22 04:40:00,
2013-11-21 20:44:00,52.8,50.5,29.91,WNW,294,0.0,3.0,92,0.01,,,0.03,0.0,WUHU216DAVISVP2,2013-11-22 04:44:00,
2013-11-21 20:50:00,52.8,50.5,29.91,WNW,294,0.0,3.0,92,0.01,,,0.03,0.0,WUHU216DAVISVP2,2013-11-22 04:50:00,
2013-11-21 20:54:00,52.8,50.5,29.91,WNW,294,0.0,3.0,92,0.01,,,0.03,0.0,WUHU216DAVISVP2,2013-11-22 04:54:00,
2013-11-21 20:59:00,52.7,50.4,29.92,WNW,294,0.0,2.0,92,0.01,,,0.03,0.0,WUHU216DAVISVP2,2013-11-22 04:59:00,
2013-11-21 21:01:00,52.7,50.4,29.91,WNW,294,0.0,2.0,92,0.01,,,0.03,0.0,WUHU216DAVISVP2,2013-11-22 05:01:00,
2013-11-21 21:06:00,52.7,50.4,29.91,WNW,294,0.0,2.0,92,0.01,,,0.03,0.0,WUHU216DAVISVP2,2013-11-22 05:06:00,
2013-11-21 21:11:00,52.7,50.4,29.91,WNW,294,0.0,2.0,92,0.01,,,0.03,0.0,WUHU216DAVISVP2,2013-11-22 05:11:00,
2013-11-21 21:16:00,52.7,50.7,29.92,WNW,294,2.0,4.0,93,0.01,,,0.03,0.0,WUHU216DAVISVP2,2013-11-22 05:16:00,
2013-11-21 21:21:00,52.7,50.7,29.92,WNW,294,0.0,4.0,93,0.01,,,0.03,0.0,WUHU216DAVISVP2,2013-11-22 05:21:00,
2013-11-21 21:26:00,52.6,50.6,29.92,WNW,294,0.0,4.0,93,0.01,,,0.03,0.0,WUHU216DAVISVP2,2013-11-22 05:26:00,
2013-11-21 21:31:00,52.5,50.5,29.92,WNW,294,1.0,4.0,93,0.01,,,0.03,0.0,WUHU216DAVISVP2,2013-11-22 05:31:00,
2013-11-21 21:36:00,52.5,50.5,29.92,WNW,294,1.0,2.0,93,0.00,,,0.03,0.0,WUHU216DAVISVP2,2013-11-22 05:36:00,
2013-11-21 21:41:00,52.6,50.6,29.92,WNW,294,0.0,3.0,93,0.00,,,0.03,0.0,WUHU216DAVISVP2,2013-11-22 05:41:00,
2013-11-21 21:46:00,52.6,50.6,29.93,WNW,294,0.0,3.0,93,0.00,,,0.03,0.0,WUHU216DAVISVP2,2013-11-22 05:46:00,
2013-11-21 21:51:00,52.6,50.6,29.93,WNW,294,0.0,3.0,93,0.00,,,0.03,0.0,WUHU216DAVISVP2,2013-11-22 05:51:00,
2013-11-21 21:56:00,52.7,51.0,29.93,WNW,294,0.0,3.0,94,0.00,,,0.03,0.0,WUHU216DAVISVP2,2013-11-22 05:56:00,
2013-11-21 22:01:00,52.7,51.0,29.93,WNW,294,0.0,3.0,94,0.00,,,0.03,0.0,WUHU216DAVISVP2,2013-11-22 06:01:00,
2013-11-21 22:06:00,52.6,50.6,29.93,WNW,294,0.0,2.0,93,0.00,,,0.03,0.0,WUHU216DAVISVP2,2013-11-22 06:06:00,
2013-11-21 22:11:00,52.6,50.9,29.93,WNW,294,0.0,2.0,94,0.00,,,0.03,0.0,WUHU216DAVISVP2,2013-11-22 06:11:00,
2013-11-21 22:16:00,52.6,50.6,29.93,WNW,294,0.0,1.0,93,0.00,,,0.03,0.0,WUHU216DAVISVP2,2013-11-22 06:16:00,
2013-11-21 22:21:00,52.5,50.8,29.93,WNW,294,0.0,1.0,94,0.00,,,0.03,0.0,WUHU216DAVISVP2,2013-11-22 06:21:00,
2013-11-21 22:26:00,52.5,50.8,29.93,WNW,294,0.0,1.0,94,0.00,,,0.03,0.0,WUHU216DAVISVP2,2013-11-22 06:26:00,
2013-11-21 22:31:00,52.6,50.9,29.93,WNW,294,0.0,1.0,94,0.00,,,0.03,0.0,WUHU216DAVISVP2,2013-11-22 06:31:00,
2013-11-21 22:36:00,52.5,50.8,29.93,WNW,294,2.0,3.0,94,0.00,,,0.03,0.0,WUHU216DAVISVP2,2013-11-22 06:36:00,
2013-11-21 22:41:00,52.5,50.8,29.93,WNW,294,0.0,3.0,94,0.00,,,0.03,0.0,WUHU216DAVISVP2,2013-11-22 06:41:00,
2013-11-21 22:46:00,52.4,50.7,29.94,WNW,294,1.0,3.0,94,0.00,,,0.03,0.0,WUHU216DAVISVP2,2013-11-22 06:46:00,
2013-11-21 22:51:00,52.4,50.7,29.93,WNW,294,0.0,3.0,94,0.00,,,0.03,0.0,WUHU216DAVISVP2,2013-11-22 06:51:00,
2013-11-21 22:56:00,52.3,50.6,29.93,WNW,294,2.0,3.0,94,0.00,,,0.03,0.0,WUHU216DAVISVP2,2013-11-22 06:56:00,
2013-11-21 23:01:00,52.3,50.6,29.94,WNW,294,1.0,3.0,94,0.00,,,0.03,0.0,WUHU216DAVISVP2,2013-11-22 07:01:00,
2013-11-21 23:06:00,52.2,50.5,29.93,WNW,294,0.0,3.0,94,0.00,,,0.03,0.0,WUHU216DAVISVP2,2013-11-22 07:06:00,
2013-11-21 23:11:00,52.2,50.5,29.93,WNW,294,0.0,3.0,94,0.00,,,0.03,0.0,WUHU216DAVISVP2,2013-11-22 07:11:00,
2013-11-21 23:16:00,52.1,50.4,29.93,WNW,294,2.0,3.0,94,0.00,,,0.03,0.0,WUHU216DAVISVP2,2013-11-22 07:16:00,
2013-11-21 23:21:00,52.1,50.7,29.93,WNW,294,1.0,3.0,95,0.00,,,0.03,0.0,WUHU216DAVISVP2,2013-11-22 07:21:00,
2013-11-21 23:26:00,52.0,50.3,29.93,WNW,294,2.0,3.0,94,0.00,,,0.03,0.0,WUHU216DAVISVP2,2013-11-22 07:26:00,
2013-11-21 23:31:00,52.0,50.6,29.93,WNW,294,1.0,3.0,95,0.00,,,0.03,0.0,WUHU216DAVISVP2,2013-11-22 07:31:00,
2013-11-21 23:36:00,51.9,50.5,29.93,WNW,294,0.0,3.0,95,0.00,,,0.03,0.0,WUHU216DAVISVP2,2013-11-22 07:36:00,
2013-11-21 23:41:00,51.9,50.5,29.94,WNW,294,0.0,3.0,95,0.00,,,0.03,0.0,WUHU216DAVISVP2,2013-11-22 07:41:00,
2013-11-21 23:46:00,51.8,50.4,29.94,WNW,294,0.0,3.0,95,0.00,,,0.03,0.0,WUHU216DAVISVP2,2013-11-22 07:46:00,
2013-11-21 23:51:00,51.7,50.0,29.94,WNW,294,0.0,3.0,94,0.00,,,0.03,0.0,WUHU216DAVISVP2,2013-11-22 07:51:00,
2013-11-21 23:56:00,51.8,50.1,29.94,WNW,294,2.0,3.0,94,0.00,,,0.03,0.0,WUHU216DAVISVP2,2013-11-22 07:56:00,